This demonstration page uses our WeatherBlox Daily Observations layout. Learn more.

Left ArrowRight Arrow

Hourly Observations for December 25, 2020

Temp ( °F °C ) Dew Point ( °F °C ) Humidity (%) Winds ( mph kmh ) Pressure ( in mb ) Visibility ( mi km ) Precip ( " mm )
12:15 am 00:15 Cloudy 14 -10 10 -12 85 85 WNW 12 19 29.96 1015 7 11.26538 N/A
12:35 am 00:35 Cloudy 14 -10 12 -11 92 92 WNW 9 15 29.96 1015 4 6.43736 N/A
12:55 am 00:55 Cloudy 14 -10 14 -10 100 100 WNW 9 15 29.95 1014 4 6.43736 N/A
1:15 am 01:15 Cloudy 14 -10 14 -10 100 100 WNW 9 15 29.95 1014 2 3.21868 N/A
1:35 am 01:35 Cloudy 12 -11 10 -12 92 92 WNW 12 19 29.96 1014 7 11.26538 N/A
1:55 am 01:55 Cloudy 12 -11 10 -12 92 92 W 13 20 29.96 1014 10 16.0934 N/A
2:15 am 02:15 Cloudy 12 -11 7 -14 79 79 W 12 19 29.96 1014 10 16.0934 N/A
2:35 am 02:35 Cloudy 10 -12 7 -14 85 85 W 13 20 29.96 1015 10 16.0934 N/A
2:55 am 02:55 Cloudy 10 -12 7 -14 85 85 WNW 12 19 29.95 1014 10 16.0934 N/A
3:15 am 03:15 Cloudy 10 -12 7 -14 85 85 W 14 22 29.95 1014 10 16.0934 N/A
3:35 am 03:35 Cloudy 10 -12 7 -14 85 85 W 9 15 29.95 1014 10 16.0934 N/A
3:55 am 03:55 Mostly Cloudy 10 -12 9 -13 92 92 W 14 22 29.94 1014 10 16.0934 N/A
4:15 am 04:15 Cloudy 10 -12 9 -13 92 92 W 9 15 29.94 1014 10 16.0934 N/A
4:35 am 04:35 Cloudy 10 -12 9 -13 92 92 WNW 14 22 29.94 1014 10 16.0934 N/A
4:55 am 04:55 Cloudy 10 -12 9 -13 92 92 W 14 22 29.95 1014 10 16.0934 N/A
5:15 am 05:15 Cloudy 10 -12 9 -13 92 92 W 15 24 29.95 1014 7 11.26538 N/A
5:35 am 05:35 Cloudy 10 -12 9 -13 92 92 W 10 17 29.95 1014 7 11.26538 N/A
5:55 am 05:55 Cloudy 10 -12 9 -13 92 92 W 13 20 29.95 1014 10 16.0934 N/A
6:15 am 06:15 Cloudy 10 -12 9 -13 92 92 W 9 15 29.96 1015 7 11.26538 N/A
6:35 am 06:35 Cloudy 10 -12 9 -13 92 92 W 12 19 29.97 1015 7 11.26538 N/A
6:55 am 06:55 Cloudy 10 -12 9 -13 92 92 W 12 19 29.97 1015 10 16.0934 N/A
7:15 am 07:15 Cloudy 10 -12 9 -13 92 92 W 14 22 29.98 1015 7 11.26538 N/A
7:36 am 07:36 Cloudy 10 -12 10 -12 100 100 W 9 15 29.98 1015 5 8.0467 N/A
7:55 am 07:55 Cloudy 10 -12 10 -12 100 100 W 12 19 29.99 1016 5 8.0467 N/A
8:15 am 08:15 Cloudy 10 -12 10 -12 100 100 W 12 19 29.99 1016 4 6.43736 N/A
8:35 am 08:35 Cloudy 10 -12 10 -12 100 100 WNW 15 24 30 1016 5 8.0467 N/A
8:55 am 08:55 Cloudy 10 -12 9 -13 92 92 W 13 20 30.01 1016 4 6.43736 N/A
9:15 am 09:15 Cloudy 10 -12 7 -14 85 85 WNW 12 19 30.01 1016 10 16.0934 N/A
9:35 am 09:35 Cloudy 10 -12 7 -14 85 85 W 12 19 30.02 1017 10 16.0934 N/A
9:55 am 09:55 Cloudy 10 -12 7 -14 85 85 W 22 35 30.03 1017 7 11.26538 N/A
10:15 am 10:15 Cloudy 10 -12 7 -14 85 85 WNW 16 26 30.04 1017 10 16.0934 N/A
10:35 am 10:35 Cloudy 10 -12 7 -14 85 85 W 18 30 30.04 1017 7 11.26538 N/A
10:55 am 10:55 Cloudy 12 -11 7 -14 79 79 W 18 30 30.05 1017 10 16.0934 N/A
11:15 am 11:15 Cloudy 12 -11 7 -14 79 79 W 17 28 30.05 1017 10 16.0934 N/A
11:35 am 11:35 Cloudy 12 -11 7 -14 79 79 W 16 26 30.05 1017 10 16.0934 N/A
11:55 am 11:55 Cloudy 12 -11 7 -14 79 79 W 15 24 30.05 1017 10 16.0934 N/A
12:15 pm 12:15 Cloudy 12 -11 9 -13 85 85 W 18 30 30.05 1017 10 16.0934 N/A
12:35 pm 12:35 Cloudy 12 -11 7 -14 79 79 W 17 28 30.06 1018 10 16.0934 N/A
12:55 pm 12:55 Cloudy 12 -11 7 -14 79 79 W 15 24 30.05 1017 10 16.0934 N/A
1:15 pm 13:15 Cloudy 12 -11 9 -13 85 85 W 15 24 30.07 1018 10 16.0934 N/A
1:35 pm 13:35 Cloudy 12 -11 9 -13 85 85 W 15 24 30.07 1018 10 16.0934 N/A
1:55 pm 13:55 Cloudy 14 -10 9 -13 79 79 W 12 19 30.06 1018 10 16.0934 N/A
2:15 pm 14:15 Cloudy 14 -10 10 -12 85 85 WSW 17 28 30.06 1018 10 16.0934 N/A
2:35 pm 14:35 Cloudy 14 -10 10 -12 85 85 W 18 30 30.07 1018 10 16.0934 N/A
2:55 pm 14:55 Cloudy 14 -10 10 -12 85 85 W 18 30 30.07 1018 10 16.0934 N/A
3:15 pm 15:15 Cloudy 14 -10 10 -12 85 85 WSW 17 28 30.08 1019 10 16.0934 N/A
3:35 pm 15:35 Cloudy 14 -10 10 -12 85 85 W 16 26 30.08 1019 10 16.0934 N/A
3:55 pm 15:55 Cloudy 16 -9 10 -12 79 79 W 16 26 30.08 1019 10 16.0934 N/A
4:15 pm 16:15 Mostly Cloudy 16 -9 10 -12 79 79 SW 16 26 30.08 1019 10 16.0934 N/A
4:35 pm 16:35 Partly Cloudy 14 -10 9 -13 79 79 WSW 15 24 30.09 1019 10 16.0934 N/A
4:55 pm 16:55 Sunny 14 -10 9 -13 79 79 WSW 15 24 30.1 1019 10 16.0934 N/A
5:15 pm 17:15 Mostly Cloudy 12 -11 9 -13 85 85 SW 13 20 30.11 1020 10 16.0934 N/A
5:35 pm 17:35 Mostly Cloudy 12 -11 9 -13 85 85 WSW 13 20 30.12 1020 10 16.0934 N/A
5:55 pm 17:55 Mostly Cloudy 12 -11 10 -12 92 92 WSW 16 26 30.12 1020 10 16.0934 N/A
6:15 pm 18:15 Mostly Cloudy 14 -10 9 -13 79 79 WSW 14 22 30.11 1020 10 16.0934 N/A
6:35 pm 18:35 Mostly Cloudy 14 -10 9 -13 79 79 SW 18 30 30.11 1020 10 16.0934 N/A
6:55 pm 18:55 Mostly Cloudy 14 -10 10 -12 85 85 WSW 18 30 30.12 1020 10 16.0934 N/A
7:15 pm 19:15 Mostly Cloudy 14 -10 10 -12 85 85 WSW 14 22 30.13 1020 10 16.0934 N/A
7:35 pm 19:35 Cloudy 14 -10 10 -12 85 85 WSW 15 24 30.12 1020 10 16.0934 N/A
7:55 pm 19:55 Cloudy 14 -10 10 -12 85 85 SW 14 22 30.12 1020 10 16.0934 N/A
8:15 pm 20:15 Mostly Cloudy 12 -11 9 -13 85 85 SW 17 28 30.12 1020 10 16.0934 N/A
8:35 pm 20:35 Partly Cloudy 12 -11 9 -13 85 85 SW 13 20 30.11 1020 10 16.0934 N/A
8:55 pm 20:55 Clear 12 -11 9 -13 85 85 SW 12 19 30.12 1020 10 16.0934 N/A
9:15 pm 21:15 Clear 12 -11 9 -13 85 85 SW 13 20 30.12 1020 10 16.0934 N/A
9:35 pm 21:35 Clear 12 -11 9 -13 85 85 SW 13 20 30.11 1020 10 16.0934 N/A
9:55 pm 21:55 Clear 12 -11 9 -13 85 85 SW 13 20 30.11 1020 10 16.0934 N/A
10:15 pm 22:15 Clear 12 -11 9 -13 85 85 SW 14 22 30.11 1020 10 16.0934 N/A
10:35 pm 22:35 Partly Cloudy 12 -11 9 -13 85 85 SW 13 20 30.11 1020 10 16.0934 N/A
10:55 pm 22:55 Clear 12 -11 9 -13 85 85 SW 14 22 30.11 1020 10 16.0934 N/A
11:15 pm 23:15 Clear 12 -11 9 -13 85 85 SW 12 19 30.12 1020 10 16.0934 N/A
11:35 pm 23:35 Clear 12 -11 9 -13 85 85 SW 12 19 30.12 1020 10 16.0934 N/A
11:55 pm 23:55 Clear 12 -11 9 -13 85 85 SW 12 19 30.11 1020 10 16.0934 N/A

Powered by AerisWeather